Weather History for K2C8 - December, 2012

Change the Weather History Date:

Sunday, December 30, 2012

  Actual Average (KGAF) Record (KGAF)
Temperature  
Mean Temperature 10 °F -  
Max Temperature 21 °F 14 °F 46 °F (1979)
Min Temperature 0 °F -2 °F -28 °F (1990)
Degree Days  
Heating Degree Days 54    
Moisture  
Dew Point 7 °F    
Average Humidity 83    
Maximum Humidity 93    
Minimum Humidity 72    
Precipitation  
Precipitation 0.38 in - - ()
Sea Level Pressure  
Sea Level Pressure 29.97 in    
Wind  
Wind Speed 11 mph (WNW)    
Max Wind Speed 18 mph    
Max Gust Speed 30 mph    
Visibility 8 miles    
Events Rain , Snow    
Averages and records for this station are not official NWS values.
T = Trace of Precipitation, MM = Missing Value Source: NWS Daily Summary

Daily Weather History Graph

Daily Weather History Graph

Search for Another Location

Airport or City:

Trip Planner

Search our weather history database for the weather conditions in past years. The results will help you decide how hot, cold, wet, or windy it might be!

Date:

Astronomy

Dec. 30, 2012 Rise Set
Actual Time 8:23 AM CST 4:43 PM CST
Civil Twilight 7:46 AM CST 5:20 PM CST
Nautical Twilight 7:06 AM CST 6:00 PM CST
Astronomical Twilight 6:28 AM CST 6:38 PM CST
Moon 7:29 PM CST (12/30) 9:21 AM CST (12/30)
Length of Visible Light 9h 33m
Length of Day
8h 19m
Waning Gibbous, 95% of the Moon is Illuminated
Dec 30
Waning Gibbous
Jan 4
Last Quarter
Jan 11
New
Jan 18
First Quarter
Jan 26
Full

Hourly Weather History & Observations

Time (CST) Temp. Windchill Dew Point Humidity Pressure Visibility Wind Dir Wind Speed Gust Speed Precip Events Conditions
12:15 AM 3.2 °F -13.1 °F -0.4 °F 85% 30.00 in 10.0 mi South 11.5 mph - N/A   Clear
12:35 AM 5.0 °F -10.8 °F -0.4 °F 78% 29.99 in 10.0 mi South 11.5 mph - N/A   Clear
12:55 AM 5.0 °F -10.8 °F -0.4 °F 78% 29.99 in 10.0 mi South 11.5 mph - N/A   Clear
1:15 AM 5.0 °F -11.6 °F -0.4 °F 78% 29.98 in 10.0 mi South 12.7 mph - N/A   Clear
1:35 AM 3.2 °F -10.3 °F -0.4 °F 85% 29.97 in 10.0 mi South 8.1 mph - N/A   Clear
1:55 AM 5.0 °F -8.1 °F -0.4 °F 78% 29.97 in 10.0 mi South 8.1 mph - N/A   Partly Cloudy
2:15 AM 5.0 °F -11.6 °F -0.4 °F 78% 29.97 in 10.0 mi South 12.7 mph - N/A   Partly Cloudy
2:35 AM 5.0 °F -11.6 °F -0.4 °F 78% 29.98 in 10.0 mi South 12.7 mph - N/A   Clear
2:55 AM 5.0 °F -10.8 °F -0.4 °F 78% 29.97 in 10.0 mi South 11.5 mph - N/A   Partly Cloudy
3:15 AM 5.0 °F -10.8 °F -0.4 °F 78% 29.97 in 10.0 mi South 11.5 mph - N/A   Clear
3:35 AM 5.0 °F -10.0 °F -0.4 °F 78% 29.95 in 10.0 mi South 10.4 mph - N/A   Clear
3:55 AM 5.0 °F -11.6 °F 1.4 °F 85% 29.95 in 10.0 mi South 12.7 mph - N/A   Clear
4:15 AM 6.8 °F -9.3 °F 1.4 °F 79% 29.94 in 10.0 mi South 12.7 mph - N/A   Clear
4:35 AM 6.8 °F -9.3 °F 1.4 °F 79% 29.94 in 10.0 mi South 12.7 mph - N/A   Clear
4:55 AM 6.8 °F -8.6 °F 3.2 °F 85% 29.93 in 10.0 mi South 11.5 mph - N/A   Clear
5:15 AM 8.6 °F -8.3 °F 5.0 °F 85% 29.92 in 10.0 mi South 15.0 mph - N/A   Clear
5:35 AM 8.6 °F -3.7 °F 5.0 °F 85% 29.92 in 10.0 mi South 8.1 mph - N/A   Clear
5:55 AM 10.4 °F -2.4 °F 5.0 °F 79% 29.93 in 10.0 mi South 9.2 mph - N/A   Clear
6:35 AM 10.4 °F 2.2 °F 6.8 °F 85% 29.93 in 10.0 mi SSE 4.6 mph - N/A   Clear
6:55 AM 10.4 °F -1.5 °F 6.8 °F 85% 29.92 in 10.0 mi South 8.1 mph - N/A   Clear
7:15 AM 12.2 °F -1.0 °F 6.8 °F 79% 29.91 in 10.0 mi South 10.4 mph - N/A   Clear
7:55 AM 12.2 °F 0.7 °F 8.6 °F 85% 29.91 in 10.0 mi South 8.1 mph - N/A   Clear
8:15 AM 14.0 °F 2.9 °F 8.6 °F 79% 29.92 in 9.0 mi South 8.1 mph - N/A   Partly Cloudy
8:35 AM 14.0 °F 0.5 °F 8.6 °F 79% 29.91 in 10.0 mi South 11.5 mph - N/A   Mostly Cloudy
8:55 AM 14.0 °F 3.9 °F 10.4 °F 86% 29.91 in 10.0 mi SSW 6.9 mph - N/A   Overcast
9:15 AM 14.0 °F 5.1 °F 10.4 °F 86% 29.91 in 9.0 mi SSW 5.8 mph - N/A   Overcast
9:35 AM 14.0 °F 3.9 °F 10.4 °F 86% 29.91 in 5.0 mi SSW 6.9 mph - N/A   Overcast
9:55 AM 15.8 °F 10.2 °F 10.4 °F 79% 29.91 in 5.0 mi SSW 3.5 mph - N/A Snow Light Snow
10:15 AM 15.8 °F 10.2 °F 10.4 °F 79% 29.92 in 8.0 mi SW 3.5 mph - N/A   Overcast
10:35 AM 15.8 °F 7.2 °F 12.2 °F 86% 29.92 in 2.0 mi WSW 5.8 mph - N/A Snow Light Snow
10:55 AM 15.8 °F 8.6 °F 14.0 °F 93% 29.91 in 0.5 mi West 4.6 mph - 0.17 in Snow Snow
11:15 AM 17.6 °F 10.7 °F 15.8 °F 93% 29.90 in 0.8 mi WNW 4.6 mph - 0.05 in Snow Light Snow
11:35 AM 17.6 °F 9.3 °F 15.8 °F 93% 29.90 in 0.8 mi NW 5.8 mph - 0.09 in Snow Light Snow
11:55 AM 19.4 °F 10.4 °F 17.6 °F 93% 29.89 in 1.0 mi NW 6.9 mph - 0.13 in Snow Light Snow
12:15 PM 21.2 °F 11.7 °F 19.4 °F 93% 29.89 in 1.8 mi NNW 8.1 mph - 0.02 in Snow Light Snow
12:35 PM 21.2 °F 9.5 °F 19.4 °F 93% 29.89 in 2.0 mi NNW 11.5 mph - 0.03 in Snow Light Snow
12:55 PM 21.2 °F 9.5 °F 19.4 °F 93% 29.88 in 0.8 mi NNW 11.5 mph - 0.07 in Snow Light Snow
1:15 PM 19.4 °F 6.0 °F 15.8 °F 86% 29.88 in 4.0 mi North 13.8 mph 20.7 mph N/A Snow Light Snow
1:35 PM 17.6 °F 1.7 °F 14.0 °F 86% 29.88 in 9.0 mi NNW 18.4 mph - N/A   Partly Cloudy
1:55 PM 17.6 °F 4.3 °F 14.0 °F 86% 29.89 in 9.0 mi NNW 12.7 mph - N/A   Clear
2:15 PM 17.6 °F 4.3 °F 14.0 °F 86% 29.89 in 9.0 mi NNW 12.7 mph 17.3 mph N/A   Partly Cloudy
2:35 PM 17.6 °F 5.7 °F 14.0 °F 86% 29.90 in 9.0 mi NNW 10.4 mph - N/A   Mostly Cloudy
2:55 PM 17.6 °F 4.3 °F 14.0 °F 86% 29.91 in 6.0 mi NNW 12.7 mph 17.3 mph N/A Snow Light Snow
3:15 PM 17.6 °F 3.7 °F 14.0 °F 86% 29.92 in 8.0 mi NNW 13.8 mph - N/A   Overcast
3:35 PM 17.6 °F 5.0 °F 14.0 °F 86% 29.93 in 9.0 mi NNW 11.5 mph - N/A   Overcast
3:55 PM 15.8 °F 2.7 °F 12.2 °F 86% 29.93 in 7.0 mi NNW 11.5 mph - N/A Snow Light Snow
4:15 PM 15.8 °F 2.7 °F 12.2 °F 86% 29.94 in 8.0 mi NNW 11.5 mph - N/A   Overcast
4:35 PM 15.8 °F 3.4 °F 12.2 °F 86% 29.95 in 5.0 mi NNW 10.4 mph - N/A Snow Light Snow
4:55 PM 15.8 °F 5.1 °F 12.2 °F 86% 29.96 in 5.0 mi NNW 8.1 mph - N/A Snow Light Snow
5:15 PM 15.8 °F 6.1 °F 12.2 °F 86% 29.96 in 9.0 mi NNW 6.9 mph - N/A   Mostly Cloudy
5:35 PM 15.8 °F 7.2 °F 12.2 °F 86% 29.97 in 8.0 mi WNW 5.8 mph - N/A Snow Light Snow
5:55 PM 15.8 °F 4.2 °F 12.2 °F 86% 29.99 in 5.0 mi NW 9.2 mph - N/A Snow Light Snow
6:15 PM 12.2 °F -4.8 °F 8.6 °F 85% 30.01 in 3.0 mi North 17.3 mph 29.9 mph N/A Rain Light Freezing Rain
6:35 PM 12.2 °F -4.3 °F 6.8 °F 79% 30.03 in 5.0 mi North 16.1 mph 26.5 mph 0.01 in Rain Light Freezing Rain
6:55 PM 10.4 °F -7.2 °F 6.8 °F 85% 30.04 in 4.0 mi North 17.3 mph 20.7 mph 0.01 in Rain Light Freezing Rain
7:15 PM 10.4 °F -5.4 °F 6.8 °F 85% 30.05 in 7.0 mi NNW 13.8 mph 23.0 mph N/A Rain Light Freezing Rain
7:35 PM 10.4 °F -5.4 °F 6.8 °F 85% 30.06 in 9.0 mi NNW 13.8 mph - N/A Rain Light Freezing Rain
7:55 PM 10.4 °F -4.8 °F 6.8 °F 85% 30.07 in 7.0 mi North 12.7 mph - N/A Rain Light Freezing Rain
8:15 PM 8.6 °F -7.0 °F 1.4 °F 73% 30.07 in 9.0 mi NNW 12.7 mph 23.0 mph N/A Rain Light Freezing Rain
8:35 PM 6.8 °F -9.3 °F -0.4 °F 72% 30.08 in 10.0 mi NNW 12.7 mph - N/A   Clear
8:55 PM 5.0 °F -13.0 °F -0.4 °F 78% 30.09 in 10.0 mi NNW 15.0 mph - N/A   Clear
9:15 PM 5.0 °F -12.3 °F -0.4 °F 78% 30.10 in 10.0 mi NNW 13.8 mph 19.6 mph N/A   Clear
9:35 PM 5.0 °F -12.3 °F -2.2 °F 72% 30.11 in 10.0 mi NNW 13.8 mph 17.3 mph N/A   Clear
9:55 PM 3.2 °F -14.6 °F -2.2 °F 78% 30.12 in 10.0 mi NNW 13.8 mph - N/A   Clear
10:15 PM 3.2 °F -13.1 °F -4.0 °F 72% 30.12 in 10.0 mi NNW 11.5 mph - N/A   Clear
10:35 PM 1.4 °F -13.5 °F -4.0 °F 78% 30.13 in 10.0 mi NNW 9.2 mph - N/A   Clear
10:55 PM 1.4 °F -14.5 °F -4.0 °F 78% 30.14 in 10.0 mi NNW 10.4 mph - N/A   Clear
11:15 PM 1.4 °F -12.5 °F -4.0 °F 78% 30.15 in 10.0 mi North 8.1 mph - N/A   Clear
11:35 PM -0.4 °F -16.7 °F -5.8 °F 78% 30.16 in 10.0 mi NNW 10.4 mph - N/A   Clear
11:55 PM -0.4 °F -16.7 °F -5.8 °F 78% 30.16 in 10.0 mi NNW 10.4 mph - N/A   Clear